When you browse on this site, cookies collect data to enhance your experience and personalize the content and advertising you see.
Visit our Privacy Policy to learn more. By continuing to use the site, you agree to this use of cookies and data.
  • In Portugal
  • List of Countries
  • For 7 days
  • Water Temperature
  • Satellite Maps
  • Weather Map
  • Weather Widgets
  • user-avatar
    Login

    Hourly Weather Banja Luka

    Today, 18 April, Thursday

    Time Temperature Precipitation Wind Pressure Humidity
    00:00 +5°C° 0 mm 0 mps 719 mmHg 89%
    01:00 +5°C° 0 mm 0 mps 719 mmHg 89%
    02:00 +5°C° 0 mm 0 mps 719 mmHg 90%
    03:00 +5°C° 0 mm 0 mps 719 mmHg 91%
    04:00 +5°C° 0 mm 0 mps 719 mmHg 92%
    05:00 +7°C° 0 mm 1 mps 719 mmHg 88%
    06:00 +8°C° 0 mm 1 mps 720 mmHg 84%
    07:00 +9°C° 0 mm 1 mps 720 mmHg 80%
    08:00 +10°C° 0.1 mm 1 mps 720 mmHg 78%
    09:00 +10°C° 0.1 mm 2 mps 720 mmHg 76%
    10:00 +10°C° 0.1 mm 2 mps 721 mmHg 75%
    11:00 +12°C° 0.2 mm 2 mps 721 mmHg 70%
    12:00 +12°C° 0.2 mm 3 mps 721 mmHg 66%
    13:00 +13°C° 0.2 mm 3 mps 721 mmHg 61%
    14:00 +13°C° 0.2 mm 3 mps 721 mmHg 62%
    15:00 +13°C° 0.2 mm 3 mps 721 mmHg 64%
    16:00 +13°C° 0.2 mm 3 mps 721 mmHg 65%
    17:00 +12°C° 0.1 mm 2 mps 721 mmHg 73%
    18:00 +9°C° 0.1 mm 2 mps 721 mmHg 81%
    19:00 +9°C° 0.1 mm 1 mps 721 mmHg 90%
    20:00 +8°C° 0 mm 1 mps 721 mmHg 91%
    21:00 +8°C° 0 mm 1 mps 722 mmHg 92%
    22:00 +6°C° 0 mm 0 mps 722 mmHg 93%
    23:00 +6°C° 0 mm 0 mps 722 mmHg 93%

    Tomorrow, 19 April, Friday

    Time Temperature Precipitation Wind Pressure Humidity
    00:00 +5°C° 0 mm 0 mps 722 mmHg 93%
    01:00 +5°C° 0 mm 0 mps 722 mmHg 93%
    02:00 +5°C° 0 mm 0 mps 722 mmHg 93%
    03:00 +5°C° 0 mm 0 mps 722 mmHg 93%
    04:00 +4°C° 0 mm 0 mps 722 mmHg 94%
    05:00 +6°C° 0 mm 0 mps 723 mmHg 90%
    06:00 +7°C° 0 mm 0 mps 723 mmHg 86%
    07:00 +9°C° 0 mm 0 mps 723 mmHg 82%
    08:00 +12°C° 0 mm 1 mps 724 mmHg 74%
    09:00 +13°C° 0 mm 1 mps 724 mmHg 66%
    10:00 +15°C° 0 mm 2 mps 724 mmHg 59%
    11:00 +16°C° 0 mm 2 mps 724 mmHg 57%
    12:00 +16°C° 0 mm 2 mps 724 mmHg 56%
    13:00 +17°C° 0 mm 2 mps 724 mmHg 54%
    14:00 +17°C° 0 mm 2 mps 724 mmHg 54%
    15:00 +16°C° 0 mm 2 mps 723 mmHg 54%
    16:00 +16°C° 0 mm 2 mps 723 mmHg 54%
    17:00 +14°C° 0 mm 2 mps 723 mmHg 62%
    18:00 +12°C° 0 mm 1 mps 722 mmHg 71%
    19:00 +10°C° 0 mm 1 mps 722 mmHg 79%
    20:00 +10°C° 0 mm 1 mps 722 mmHg 80%
    21:00 +9°C° 0 mm 1 mps 723 mmHg 80%
    22:00 +7°C° 0 mm 0 mps 723 mmHg 80%
    23:00 +7°C° 0 mm 0 mps 723 mmHg 80%

    Day after tomorrow, 20 April, Saturday

    Time Temperature Precipitation Wind Pressure Humidity
    00:00 +7°C° 0 mm 0 mps 723 mmHg 80%
    01:00 +7°C° 0 mm 0 mps 723 mmHg 79%
    02:00 +7°C° 0 mm 0 mps 722 mmHg 83%
    03:00 +6°C° 0 mm 0 mps 722 mmHg 86%
    04:00 +5°C° 0 mm 0 mps 722 mmHg 89%
    05:00 +7°C° 0 mm 0 mps 722 mmHg 84%
    06:00 +8°C° 0 mm 0 mps 722 mmHg 79%
    07:00 +10°C° 0 mm 0 mps 723 mmHg 74%
    08:00 +12°C° 0 mm 1 mps 723 mmHg 64%
    09:00 +13°C° 0 mm 2 mps 723 mmHg 55%
    10:00 +14°C° 0 mm 3 mps 723 mmHg 46%
    11:00 +14°C° 0 mm 3 mps 723 mmHg 43%
    12:00 +16°C° 0 mm 3 mps 723 mmHg 41%
    13:00 +16°C° 0 mm 3 mps 723 mmHg 39%
    14:00 +16°C° 0 mm 3 mps 722 mmHg 40%
    15:00 +14°C° 0 mm 3 mps 722 mmHg 42%
    16:00 +15°C° 0 mm 2 mps 722 mmHg 44%
    17:00 +13°C° 0 mm 2 mps 721 mmHg 54%
    18:00 +11°C° 0 mm 1 mps 721 mmHg 64%
    19:00 +9°C° 0 mm 1 mps 721 mmHg 74%
    20:00 +8°C° 0 mm 1 mps 721 mmHg 76%
    21:00 +7°C° 0 mm 1 mps 721 mmHg 78%
    22:00 +7°C° 0 mm 1 mps 721 mmHg 80%
    23:00 +7°C° 0 mm 1 mps 721 mmHg 81%

    21 April, Sunday

    Time Temperature Precipitation Wind Pressure Humidity
    00:00 +6°C° 0 mm 1 mps 721 mmHg 82%
    01:00 +6°C° 0 mm 1 mps 721 mmHg 83%
    02:00 +6°C° 0 mm 1 mps 720 mmHg 83%
    03:00 +5°C° 0 mm 1 mps 720 mmHg 83%
    04:00 +5°C° 0 mm 1 mps 720 mmHg 82%
    05:00 +7°C° 0 mm 1 mps 720 mmHg 76%
    06:00 +8°C° 0 mm 1 mps 720 mmHg 69%
    07:00 +10°C° 0 mm 1 mps 720 mmHg 62%
    08:00 +12°C° 0 mm 0 mps 720 mmHg 54%
    09:00 +14°C° 0 mm 0 mps 720 mmHg 45%
    10:00 +17°C° 0 mm 0 mps 721 mmHg 37%
    11:00 +18°C° 0 mm 0 mps 720 mmHg 35%
    12:00 +21°C° 0 mm 1 mps 720 mmHg 33%
    13:00 +21°C° 0 mm 1 mps 720 mmHg 31%
    14:00 +21°C° 0 mm 1 mps 719 mmHg 33%
    15:00 +20°C° 0 mm 1 mps 719 mmHg 35%
    16:00 +18°C° 0 mm 2 mps 718 mmHg 37%
    17:00 +16°C° 0 mm 1 mps 718 mmHg 47%
    18:00 +14°C° 0 mm 1 mps 718 mmHg 57%
    19:00 +10°C° 0 mm 0 mps 717 mmHg 67%
    20:00 +11°C° 0 mm 1 mps 717 mmHg 70%
    21:00 +10°C° 0 mm 1 mps 718 mmHg 73%
    22:00 +10°C° 0 mm 1 mps 718 mmHg 76%
    23:00 +9°C° 0 mm 1 mps 717 mmHg 79%

    22 April, Monday

    Time Temperature Precipitation Wind Pressure Humidity
    00:00 +9°C° 0 mm 1 mps 717 mmHg 82%
    01:00 +9°C° 0 mm 1 mps 717 mmHg 85%
    02:00 +8°C° 0 mm 1 mps 717 mmHg 87%
    03:00 +8°C° 0 mm 1 mps 716 mmHg 88%
    04:00 +8°C° 0 mm 1 mps 716 mmHg 90%
    05:00 +9°C° 0 mm 1 mps 716 mmHg 83%
    06:00 +11°C° 0 mm 1 mps 716 mmHg 76%
    07:00 +12°C° 0 mm 1 mps 716 mmHg 69%
    08:00 +15°C° 0 mm 1 mps 716 mmHg 59%
    09:00 +18°C° 0 mm 1 mps 716 mmHg 50%
    10:00 +20°C° 0 mm 1 mps 716 mmHg 41%
    11:00 +20°C° 0 mm 2 mps 716 mmHg 39%
    12:00 +21°C° 0 mm 2 mps 715 mmHg 37%
    13:00 +23°C° 0 mm 2 mps 715 mmHg 36%
    14:00 +21°C° 0 mm 2 mps 714 mmHg 40%
    15:00 +20°C° 0 mm 2 mps 714 mmHg 45%
    16:00 +19°C° 0 mm 2 mps 713 mmHg 49%
    17:00 +17°C° 0 mm 2 mps 713 mmHg 56%
    18:00 +15°C° 0 mm 2 mps 713 mmHg 63%
    19:00 +13°C° 0 mm 2 mps 713 mmHg 70%
    20:00 +12°C° 0 mm 2 mps 712 mmHg 71%
    21:00 +12°C° 0 mm 2 mps 712 mmHg 73%
    22:00 +10°C° 0 mm 2 mps 712 mmHg 74%
    23:00 +10°C° 0 mm 2 mps 712 mmHg 76%

    23 April, Tuesday

    Time Temperature Precipitation Wind Pressure Humidity
    00:00 +10°C° 0 mm 2 mps 711 mmHg 77%
    01:00 +10°C° 0 mm 2 mps 711 mmHg 79%
    02:00 +10°C° 0.9 mm 2 mps 711 mmHg 83%
    03:00 +10°C° 0.9 mm 2 mps 711 mmHg 88%
    04:00 +10°C° 0.9 mm 2 mps 710 mmHg 92%
    05:00 +10°C° 0.1 mm 2 mps 710 mmHg 91%
    06:00 +10°C° 0.1 mm 2 mps 710 mmHg 90%
    07:00 +12°C° 0.1 mm 2 mps 710 mmHg 89%
    08:00 +14°C° 0 mm 2 mps 710 mmHg 79%
    09:00 +16°C° 0 mm 3 mps 711 mmHg 68%
    10:00 +18°C° 0 mm 4 mps 711 mmHg 57%
    11:00 +19°C° 0 mm 4 mps 711 mmHg 54%
    12:00 +20°C° 0 mm 4 mps 711 mmHg 52%
    13:00 +20°C° 0 mm 4 mps 711 mmHg 49%
    14:00 +20°C° 0.1 mm 4 mps 711 mmHg 51%
    15:00 +19°C° 0.1 mm 4 mps 710 mmHg 53%
    16:00 +19°C° 0.1 mm 4 mps 710 mmHg 55%
    17:00 +17°C° 0 mm 3 mps 710 mmHg 63%
    18:00 +15°C° 0 mm 2 mps 710 mmHg 71%
    19:00 +13°C° 0 mm 1 mps 710 mmHg 78%
    20:00 +13°C° 0 mm 1 mps 710 mmHg 81%
    21:00 +12°C° 0 mm 1 mps 710 mmHg 84%
    22:00 +12°C° 0 mm 1 mps 711 mmHg 87%
    23:00 +12°C° 0.8 mm 1 mps 711 mmHg 89%
    Show more